Year,Month,Day,Hour,Minute,Value (Times are PST for temperature in C)
2010,07,14,00,00,9.90
2010,07,14,00,01,9.90
2010,07,14,00,02,9.90
2010,07,14,00,03,9.90
2010,07,14,00,04,10.00
2010,07,14,00,05,10.00
2010,07,14,00,06,10.00
2010,07,14,00,07,10.00
2010,07,14,00,08,10.00
2010,07,14,00,09,10.00
2010,07,14,00,10,10.00
2010,07,14,00,11,9.90
2010,07,14,00,12,9.90
2010,07,14,00,13,9.90
2010,07,14,00,14,9.90
2010,07,14,00,15,9.80
2010,07,14,00,16,9.80
2010,07,14,00,17,9.80
2010,07,14,00,18,9.80
2010,07,14,00,19,9.70
2010,07,14,00,20,9.70
2010,07,14,00,21,9.70
2010,07,14,00,22,9.70
2010,07,14,00,23,9.70
2010,07,14,00,24,9.70
2010,07,14,00,25,9.70
2010,07,14,00,26,9.70
2010,07,14,00,27,9.70
2010,07,14,00,28,9.60
2010,07,14,00,29,9.60
2010,07,14,00,30,9.60
2010,07,14,00,31,9.60
2010,07,14,00,32,9.60
2010,07,14,00,33,9.60
2010,07,14,00,34,9.60
2010,07,14,00,35,9.60
2010,07,14,00,36,9.50
2010,07,14,00,37,9.50
2010,07,14,00,38,9.50
2010,07,14,00,39,9.40
2010,07,14,00,40,9.40
2010,07,14,00,41,9.40
2010,07,14,00,42,9.40
2010,07,14,00,43,9.40
2010,07,14,00,44,9.50
2010,07,14,00,45,9.50
2010,07,14,00,46,9.60
2010,07,14,00,47,9.60
2010,07,14,00,48,9.50
2010,07,14,00,49,9.50
2010,07,14,00,50,9.40
2010,07,14,00,51,9.40
2010,07,14,00,52,9.40
2010,07,14,00,53,9.30
2010,07,14,00,54,9.30
2010,07,14,00,55,9.30
2010,07,14,00,56,9.30
2010,07,14,00,57,9.30
2010,07,14,00,58,9.30
2010,07,14,00,59,9.30
2010,07,14,01,00,9.30
2010,07,14,01,01,9.40
2010,07,14,01,02,9.40
2010,07,14,01,03,9.50
2010,07,14,01,04,9.50
2010,07,14,01,05,9.50
2010,07,14,01,06,9.50
2010,07,14,01,07,9.60
2010,07,14,01,08,9.60
2010,07,14,01,09,9.60
2010,07,14,01,10,9.60
2010,07,14,01,11,9.60
2010,07,14,01,12,9.60
2010,07,14,01,13,9.60
2010,07,14,01,14,9.50
2010,07,14,01,15,9.50
2010,07,14,01,16,9.50
2010,07,14,01,17,9.50
2010,07,14,01,18,9.50
2010,07,14,01,19,9.50
2010,07,14,01,20,9.50
2010,07,14,01,21,9.50
2010,07,14,01,22,9.50
2010,07,14,01,23,9.50
2010,07,14,01,24,9.50
2010,07,14,01,25,9.50
2010,07,14,01,26,9.60
2010,07,14,01,27,9.60
2010,07,14,01,28,9.60
2010,07,14,01,29,9.70
2010,07,14,01,30,9.70
2010,07,14,01,31,9.70
2010,07,14,01,32,9.70
2010,07,14,01,33,9.70
2010,07,14,01,34,9.70
2010,07,14,01,35,9.70
2010,07,14,01,36,9.70
2010,07,14,01,37,9.70
2010,07,14,01,38,9.70
2010,07,14,01,39,9.60
2010,07,14,01,40,9.60
2010,07,14,01,41,9.60
2010,07,14,01,42,9.60
2010,07,14,01,43,9.60
2010,07,14,01,44,9.60
2010,07,14,01,45,9.60
2010,07,14,01,46,9.60
2010,07,14,01,47,9.60
2010,07,14,01,48,9.60
2010,07,14,01,49,9.60
2010,07,14,01,50,9.50
2010,07,14,01,51,9.50
2010,07,14,01,52,9.40
2010,07,14,01,53,9.40
2010,07,14,01,54,9.40
2010,07,14,01,55,9.30
2010,07,14,01,56,9.30
2010,07,14,01,57,9.30
2010,07,14,01,58,9.20
2010,07,14,01,59,9.20
2010,07,14,02,00,9.20
2010,07,14,02,01,9.20
2010,07,14,02,02,9.10
2010,07,14,02,03,9.10
2010,07,14,02,04,9.10
2010,07,14,02,05,9.10
2010,07,14,02,06,9.20
2010,07,14,02,07,9.20
2010,07,14,02,08,9.20
2010,07,14,02,09,9.30
2010,07,14,02,10,9.30
2010,07,14,02,11,9.30
2010,07,14,02,12,9.30
2010,07,14,02,13,9.30
2010,07,14,02,14,9.30
2010,07,14,02,15,9.30
2010,07,14,02,16,9.30
2010,07,14,02,17,9.30
2010,07,14,02,18,9.30
2010,07,14,02,19,9.30
2010,07,14,02,20,9.30
2010,07,14,02,21,9.30
2010,07,14,02,22,9.30
2010,07,14,02,23,9.40
2010,07,14,02,24,9.40
2010,07,14,02,25,9.40
2010,07,14,02,26,9.40
2010,07,14,02,27,9.40
2010,07,14,02,28,9.40
2010,07,14,02,29,9.40
2010,07,14,02,30,9.40
2010,07,14,02,31,9.50
2010,07,14,02,32,9.50
2010,07,14,02,33,9.50
2010,07,14,02,34,9.50
2010,07,14,02,35,9.40
2010,07,14,02,36,9.40
2010,07,14,02,37,9.40
2010,07,14,02,38,9.40
2010,07,14,02,39,9.40
2010,07,14,02,40,9.40
2010,07,14,02,41,9.40
2010,07,14,02,42,9.40
2010,07,14,02,43,9.40
2010,07,14,02,44,9.40
2010,07,14,02,45,9.40
2010,07,14,02,46,9.40
2010,07,14,02,47,9.40
2010,07,14,02,48,9.40
2010,07,14,02,49,9.40
2010,07,14,02,50,9.40
2010,07,14,02,51,9.40
2010,07,14,02,52,9.40
2010,07,14,02,53,9.50
2010,07,14,02,54,9.50
2010,07,14,02,55,9.60
2010,07,14,02,56,9.60
2010,07,14,02,57,9.60
2010,07,14,02,58,9.50
2010,07,14,02,59,9.50
2010,07,14,03,00,9.50
2010,07,14,03,01,9.40
2010,07,14,03,02,9.40
2010,07,14,03,06,9.40
2010,07,14,03,07,9.40
2010,07,14,03,08,9.40
2010,07,14,03,09,9.30
2010,07,14,03,10,9.30
2010,07,14,03,11,9.30
2010,07,14,03,12,9.30
2010,07,14,03,13,9.30
2010,07,14,03,14,9.30
2010,07,14,03,15,9.30
2010,07,14,03,16,9.30
2010,07,14,03,17,9.40
2010,07,14,03,18,9.40
2010,07,14,03,19,9.40
2010,07,14,03,20,9.40
2010,07,14,03,21,9.40
2010,07,14,03,22,9.40
2010,07,14,03,23,9.40
2010,07,14,03,24,9.40
2010,07,14,03,25,9.40
2010,07,14,03,26,9.40
2010,07,14,03,27,9.30
2010,07,14,03,28,9.30
2010,07,14,03,29,9.30
2010,07,14,03,30,9.30
2010,07,14,03,31,9.30
2010,07,14,03,32,9.30
2010,07,14,03,33,9.30
2010,07,14,03,34,9.20
2010,07,14,03,35,9.20
2010,07,14,03,36,9.20
2010,07,14,03,37,9.20
2010,07,14,03,38,9.20
2010,07,14,03,39,9.20
2010,07,14,03,40,9.30
2010,07,14,03,41,9.30
2010,07,14,03,42,9.30
2010,07,14,03,43,9.20
2010,07,14,03,44,9.10
2010,07,14,03,45,9.10
2010,07,14,03,46,9.00
2010,07,14,03,47,9.00
2010,07,14,03,48,9.00
2010,07,14,03,49,9.00
2010,07,14,03,50,9.00
2010,07,14,03,51,9.00
2010,07,14,03,52,9.00
2010,07,14,03,53,9.00
2010,07,14,03,54,9.00
2010,07,14,03,55,9.00
2010,07,14,03,56,9.00
2010,07,14,03,57,9.10
2010,07,14,03,58,9.10
2010,07,14,03,59,9.10
2010,07,14,04,00,9.00
2010,07,14,04,01,9.00
2010,07,14,04,02,9.00
2010,07,14,04,03,9.00
2010,07,14,04,04,9.00
2010,07,14,04,05,9.00
2010,07,14,04,06,8.90
2010,07,14,04,07,8.90
2010,07,14,04,08,8.90
2010,07,14,04,09,9.00
2010,07,14,04,10,9.00
2010,07,14,04,11,9.00
2010,07,14,04,12,9.10
2010,07,14,04,13,9.10
2010,07,14,04,14,9.10
2010,07,14,04,15,9.20
2010,07,14,04,16,9.20
2010,07,14,04,17,9.20
2010,07,14,04,18,9.20
2010,07,14,04,19,9.20
2010,07,14,04,20,9.20
2010,07,14,04,21,9.20
2010,07,14,04,22,9.20
2010,07,14,04,23,9.20
2010,07,14,04,24,9.20
2010,07,14,04,25,9.20
2010,07,14,04,26,9.20
2010,07,14,04,27,9.20
2010,07,14,04,28,9.10
2010,07,14,04,29,9.10
2010,07,14,04,30,9.00
2010,07,14,04,31,9.00
2010,07,14,04,32,8.90
2010,07,14,04,33,8.90
2010,07,14,04,34,8.90
2010,07,14,04,35,8.80
2010,07,14,04,36,8.80
2010,07,14,04,37,8.90
2010,07,14,04,38,8.90
2010,07,14,04,39,8.90
2010,07,14,04,40,8.90
2010,07,14,04,41,8.90
2010,07,14,04,42,8.90
2010,07,14,04,43,8.90
2010,07,14,04,44,8.90
2010,07,14,04,45,8.90
2010,07,14,04,46,8.90
2010,07,14,04,47,8.90
2010,07,14,04,48,8.90
2010,07,14,04,49,8.90
2010,07,14,04,50,8.90
2010,07,14,04,51,8.90
2010,07,14,04,52,8.90
2010,07,14,04,53,8.90
2010,07,14,04,54,8.90
2010,07,14,04,55,8.80
2010,07,14,04,56,8.80
2010,07,14,04,57,8.80
2010,07,14,04,58,8.80
2010,07,14,04,59,8.80
2010,07,14,05,00,8.80
2010,07,14,05,01,8.80
2010,07,14,05,02,8.80
2010,07,14,05,03,8.80
2010,07,14,05,04,8.80
2010,07,14,05,05,8.80
2010,07,14,05,06,8.80
2010,07,14,05,07,8.80
2010,07,14,05,08,8.80
2010,07,14,05,09,8.80
2010,07,14,05,10,8.80
2010,07,14,05,11,8.80
2010,07,14,05,12,8.90
2010,07,14,05,13,8.90
2010,07,14,05,14,8.90
2010,07,14,05,15,8.90
2010,07,14,05,16,8.90
2010,07,14,05,17,9.00
2010,07,14,05,18,9.00
2010,07,14,05,19,9.00
2010,07,14,05,20,9.00
2010,07,14,05,21,9.00
2010,07,14,05,22,9.00
2010,07,14,05,23,8.90
2010,07,14,05,24,8.90
2010,07,14,05,25,8.90
2010,07,14,05,26,8.90
2010,07,14,05,27,8.90
2010,07,14,05,28,8.90
2010,07,14,05,29,8.90
2010,07,14,05,30,8.90
2010,07,14,05,31,8.90
2010,07,14,05,32,8.90
2010,07,14,05,33,8.90
2010,07,14,05,34,8.90
2010,07,14,05,35,8.90
2010,07,14,05,36,8.90
2010,07,14,05,37,8.90
2010,07,14,05,38,8.90
2010,07,14,05,39,8.90
2010,07,14,05,40,8.90
2010,07,14,05,41,8.90
2010,07,14,05,42,8.90
2010,07,14,05,43,8.90
2010,07,14,05,44,8.80
2010,07,14,05,45,8.80
2010,07,14,05,46,8.80
2010,07,14,05,47,8.80
2010,07,14,05,48,8.80
2010,07,14,05,49,8.90
2010,07,14,05,50,8.90
2010,07,14,05,51,8.90
2010,07,14,05,52,8.90
2010,07,14,05,53,8.90
2010,07,14,05,54,8.90
2010,07,14,05,55,8.90
2010,07,14,05,56,8.90
2010,07,14,05,57,8.90
2010,07,14,05,58,8.90
2010,07,14,05,59,9.00
2010,07,14,06,00,9.00
2010,07,14,06,01,9.00
2010,07,14,06,02,9.00
2010,07,14,06,03,9.10
2010,07,14,06,04,9.00
2010,07,14,06,05,9.10
2010,07,14,06,06,9.10
2010,07,14,06,07,9.10
2010,07,14,06,08,9.10
2010,07,14,06,09,9.10
2010,07,14,06,10,9.10
2010,07,14,06,11,9.10
2010,07,14,06,12,9.10
2010,07,14,06,13,9.10
2010,07,14,06,14,9.00
2010,07,14,06,15,9.10
2010,07,14,06,16,9.00
2010,07,14,06,17,9.00
2010,07,14,06,18,9.00
2010,07,14,06,19,9.00
2010,07,14,06,20,9.00
2010,07,14,06,21,9.00
2010,07,14,06,22,9.00
2010,07,14,06,23,9.00
2010,07,14,06,24,9.00
2010,07,14,06,25,9.00
2010,07,14,06,26,9.00
2010,07,14,06,27,9.00
2010,07,14,06,28,9.00
2010,07,14,06,29,9.10
2010,07,14,06,30,9.10
2010,07,14,06,31,9.10
2010,07,14,06,32,9.10
2010,07,14,06,33,9.10
2010,07,14,06,34,9.10
2010,07,14,06,35,9.20
2010,07,14,06,36,9.20
2010,07,14,06,37,9.20
2010,07,14,06,38,9.20
2010,07,14,06,39,9.20
2010,07,14,06,40,9.20
2010,07,14,06,41,9.20
2010,07,14,06,42,9.20
2010,07,14,06,43,9.20
2010,07,14,06,44,9.20
2010,07,14,06,45,9.30
2010,07,14,06,46,9.30
2010,07,14,06,47,9.40
2010,07,14,06,48,9.50
2010,07,14,06,49,9.60
2010,07,14,06,50,9.70
2010,07,14,06,51,9.80
2010,07,14,06,52,9.80
2010,07,14,06,53,9.80
2010,07,14,06,54,9.90
2010,07,14,06,55,9.90
2010,07,14,06,56,10.00
2010,07,14,06,57,10.00
2010,07,14,06,58,10.10
2010,07,14,06,59,10.10
2010,07,14,07,00,10.20
2010,07,14,07,01,10.30
2010,07,14,07,02,10.30
2010,07,14,07,03,10.30
2010,07,14,07,04,10.40
2010,07,14,07,05,10.50
2010,07,14,07,06,10.50
2010,07,14,07,07,10.60
2010,07,14,07,08,10.60
2010,07,14,07,09,10.70
2010,07,14,07,10,10.70
2010,07,14,07,11,10.80
2010,07,14,07,12,10.90
2010,07,14,07,13,10.90
2010,07,14,07,14,11.00
2010,07,14,07,15,11.00
2010,07,14,07,16,11.00
2010,07,14,07,17,11.10
2010,07,14,07,18,11.10
2010,07,14,07,19,11.10
2010,07,14,07,20,11.20
2010,07,14,07,21,11.20
2010,07,14,07,22,11.30
2010,07,14,07,23,11.30
2010,07,14,07,24,11.30
2010,07,14,07,25,11.40
2010,07,14,07,26,11.40
2010,07,14,07,27,11.40
2010,07,14,07,28,11.50
2010,07,14,07,29,11.50
2010,07,14,07,30,11.50
2010,07,14,07,31,11.60
2010,07,14,07,32,11.60
2010,07,14,07,33,11.60
2010,07,14,07,34,11.70
2010,07,14,07,35,11.70
2010,07,14,07,36,11.80
2010,07,14,07,37,11.80
2010,07,14,07,38,11.90
2010,07,14,07,39,11.90
2010,07,14,07,40,11.90
2010,07,14,07,41,11.90
2010,07,14,07,42,12.00
2010,07,14,07,43,12.10
2010,07,14,07,44,12.20
2010,07,14,07,45,12.20
2010,07,14,07,46,12.30
2010,07,14,07,47,12.40
2010,07,14,07,48,12.50
2010,07,14,07,49,12.60
2010,07,14,07,50,12.60
2010,07,14,07,51,12.60
2010,07,14,07,52,12.50
2010,07,14,07,53,12.50
2010,07,14,07,54,12.40
2010,07,14,07,55,12.40
2010,07,14,07,56,12.40
2010,07,14,07,57,12.40
2010,07,14,07,58,12.40
2010,07,14,07,59,12.40
2010,07,14,08,00,12.50
2010,07,14,08,01,12.50
2010,07,14,08,02,12.50
2010,07,14,08,03,12.50
2010,07,14,08,04,12.60
2010,07,14,08,05,12.60
2010,07,14,08,06,12.50
2010,07,14,08,07,12.50
2010,07,14,08,08,12.50
2010,07,14,08,09,12.40
2010,07,14,08,10,12.40
2010,07,14,08,11,12.40
2010,07,14,08,12,12.30
2010,07,14,08,13,12.30
2010,07,14,08,14,12.30
2010,07,14,08,15,12.20
2010,07,14,08,16,12.20
2010,07,14,08,17,12.20
2010,07,14,08,18,12.10
2010,07,14,08,19,12.00
2010,07,14,08,20,11.90
2010,07,14,08,21,11.90
2010,07,14,08,22,11.80
2010,07,14,08,23,11.70
2010,07,14,08,24,11.70
2010,07,14,08,25,11.70
2010,07,14,08,26,11.70
2010,07,14,08,27,11.60
2010,07,14,08,28,11.60
2010,07,14,08,29,11.60
2010,07,14,08,30,11.60
2010,07,14,08,31,11.60
2010,07,14,08,32,11.60
2010,07,14,08,33,11.60
2010,07,14,08,34,11.60
2010,07,14,08,35,11.60
2010,07,14,08,36,11.60
2010,07,14,08,37,11.50
2010,07,14,08,38,11.50
2010,07,14,08,39,11.50
2010,07,14,08,40,11.40
2010,07,14,08,41,11.40
2010,07,14,08,42,11.40
2010,07,14,08,43,11.40
2010,07,14,08,44,11.50
2010,07,14,08,45,11.50
2010,07,14,08,46,11.40
2010,07,14,08,47,11.40
2010,07,14,08,48,11.40
2010,07,14,08,49,11.40
2010,07,14,08,50,11.40
2010,07,14,08,51,11.30
2010,07,14,08,52,11.30
2010,07,14,08,53,11.30
2010,07,14,08,54,11.30
2010,07,14,08,55,11.30
2010,07,14,08,56,11.30
2010,07,14,08,57,11.20
2010,07,14,08,58,11.20
2010,07,14,08,59,11.20
2010,07,14,09,00,11.20
2010,07,14,09,01,11.10
2010,07,14,09,02,11.10
2010,07,14,09,03,11.10
2010,07,14,09,04,11.10
2010,07,14,09,05,11.20
2010,07,14,09,06,11.20
2010,07,14,09,07,11.20
2010,07,14,09,08,11.20
2010,07,14,09,09,11.20
2010,07,14,09,10,11.30
2010,07,14,09,11,11.40
2010,07,14,09,12,11.40
2010,07,14,09,13,11.50
2010,07,14,09,14,11.60
2010,07,14,09,15,11.70
2010,07,14,09,16,11.70
2010,07,14,09,17,11.80
2010,07,14,09,18,11.90
2010,07,14,09,19,11.90
2010,07,14,09,20,12.00
2010,07,14,09,21,12.00
2010,07,14,09,22,12.10
2010,07,14,09,23,12.10
2010,07,14,09,24,12.20
2010,07,14,09,25,12.30
2010,07,14,09,26,12.30
2010,07,14,09,27,12.30
2010,07,14,09,28,12.40
2010,07,14,09,29,12.40
2010,07,14,09,30,12.50
2010,07,14,09,31,12.50
2010,07,14,09,32,12.50
2010,07,14,09,33,12.50
2010,07,14,09,34,12.60
2010,07,14,09,35,12.60
2010,07,14,09,36,12.60
2010,07,14,09,37,12.60
2010,07,14,09,38,12.50
2010,07,14,09,39,12.40
2010,07,14,09,40,12.40
2010,07,14,09,41,12.40
2010,07,14,09,42,12.40
2010,07,14,09,43,12.50
2010,07,14,09,44,12.60
2010,07,14,09,45,12.60
2010,07,14,09,46,12.50
2010,07,14,09,47,12.40
2010,07,14,09,48,12.30
2010,07,14,09,49,12.20
2010,07,14,09,50,12.20
2010,07,14,09,51,12.20
2010,07,14,09,52,12.20
2010,07,14,09,53,12.20
2010,07,14,09,54,12.20
2010,07,14,09,55,12.20
2010,07,14,09,56,12.20
2010,07,14,09,57,12.20
2010,07,14,09,58,12.10
2010,07,14,09,59,12.10
2010,07,14,10,00,12.10
2010,07,14,10,01,12.10
2010,07,14,10,02,12.10
2010,07,14,10,03,12.20
2010,07,14,10,04,12.20
2010,07,14,10,05,12.20
2010,07,14,10,06,12.10
2010,07,14,10,07,12.20
2010,07,14,10,08,12.20
2010,07,14,10,09,12.20
2010,07,14,10,10,12.20
2010,07,14,10,11,12.10
2010,07,14,10,12,12.10
2010,07,14,10,13,12.20
2010,07,14,10,14,12.30
2010,07,14,10,15,12.40
2010,07,14,10,16,12.40
2010,07,14,10,17,12.50
2010,07,14,10,18,12.50
2010,07,14,10,19,12.60
2010,07,14,10,20,12.70
2010,07,14,10,21,12.70
2010,07,14,10,22,12.80
2010,07,14,10,23,12.80
2010,07,14,10,24,12.80
2010,07,14,10,25,12.80
2010,07,14,10,26,12.80
2010,07,14,10,27,12.80
2010,07,14,10,28,12.90
2010,07,14,10,29,12.90
2010,07,14,10,30,13.00
2010,07,14,10,31,13.10
2010,07,14,10,32,13.10
2010,07,14,10,33,13.10
2010,07,14,10,34,13.00
2010,07,14,10,35,13.00
2010,07,14,10,36,12.90
2010,07,14,10,37,12.80
2010,07,14,10,38,12.80
2010,07,14,10,39,12.80
2010,07,14,10,40,12.70
2010,07,14,10,41,12.70
2010,07,14,10,42,12.70
2010,07,14,10,43,12.80
2010,07,14,10,44,12.70
2010,07,14,10,45,12.70
2010,07,14,10,46,12.60
2010,07,14,10,47,12.60
2010,07,14,10,48,12.70
2010,07,14,10,49,12.80
2010,07,14,10,50,12.90
2010,07,14,10,51,13.00
2010,07,14,10,52,13.10
2010,07,14,10,53,13.20
2010,07,14,10,54,13.20
2010,07,14,10,55,13.20
2010,07,14,10,56,13.20
2010,07,14,10,57,13.20
2010,07,14,10,58,13.10
2010,07,14,10,59,13.10
2010,07,14,11,00,13.00
2010,07,14,11,01,13.00
2010,07,14,11,02,13.10
2010,07,14,11,03,13.20
2010,07,14,11,04,13.20
2010,07,14,11,05,13.30
2010,07,14,11,06,13.30
2010,07,14,11,07,13.30
2010,07,14,11,08,13.40
2010,07,14,11,09,13.40
2010,07,14,11,10,13.50
2010,07,14,11,11,13.50
2010,07,14,11,12,13.60
2010,07,14,11,13,13.60
2010,07,14,11,14,13.60
2010,07,14,11,15,13.60
2010,07,14,11,16,13.60
2010,07,14,11,17,13.60
2010,07,14,11,18,13.60
2010,07,14,11,19,13.60
2010,07,14,11,20,13.50
2010,07,14,11,21,13.50
2010,07,14,11,22,13.40
2010,07,14,11,23,13.30
2010,07,14,11,24,13.30
2010,07,14,11,25,13.30
2010,07,14,11,26,13.30
2010,07,14,11,27,13.30
2010,07,14,11,28,13.30
2010,07,14,11,29,13.30
2010,07,14,11,30,13.20
2010,07,14,11,31,13.20
2010,07,14,11,32,13.30
2010,07,14,11,33,13.30
2010,07,14,11,34,13.40
2010,07,14,11,35,13.40
2010,07,14,11,36,13.50
2010,07,14,11,37,13.60
2010,07,14,11,38,13.60
2010,07,14,11,39,13.50
2010,07,14,11,40,13.40
2010,07,14,11,41,13.40
2010,07,14,11,42,13.30
2010,07,14,11,43,13.30
2010,07,14,11,44,13.10
2010,07,14,11,45,13.10
2010,07,14,11,46,13.10
2010,07,14,11,47,13.10
2010,07,14,11,48,13.20
2010,07,14,11,49,13.20
2010,07,14,11,50,13.20
2010,07,14,11,51,13.10
2010,07,14,11,52,13.00
2010,07,14,11,53,12.90
2010,07,14,11,54,12.80
2010,07,14,11,55,12.80
2010,07,14,11,56,12.70
2010,07,14,11,57,12.60
2010,07,14,11,58,12.50
2010,07,14,11,59,12.40
2010,07,14,12,00,12.30
2010,07,14,12,01,12.30
2010,07,14,12,02,12.20
2010,07,14,12,03,12.20
2010,07,14,12,04,12.10
2010,07,14,12,05,12.00
2010,07,14,12,06,12.00
2010,07,14,12,14,12.30
2010,07,14,12,15,12.30
2010,07,14,12,16,12.30
2010,07,14,12,17,12.30
2010,07,14,12,18,12.30
2010,07,14,12,19,12.30
2010,07,14,12,20,12.30
2010,07,14,12,21,12.30
2010,07,14,12,22,12.30
2010,07,14,12,23,12.40
2010,07,14,12,24,12.50
2010,07,14,12,25,12.50
2010,07,14,12,26,12.60
2010,07,14,12,27,12.50
2010,07,14,12,28,12.50
2010,07,14,12,29,12.40
2010,07,14,12,30,12.30
2010,07,14,12,31,12.40
2010,07,14,12,32,12.40
2010,07,14,12,33,12.40
2010,07,14,12,34,12.40
2010,07,14,12,35,12.50
2010,07,14,12,36,12.60
2010,07,14,12,37,12.70
2010,07,14,12,38,12.70
2010,07,14,12,39,12.70
2010,07,14,12,40,12.80
2010,07,14,12,41,12.80
2010,07,14,12,42,12.90
2010,07,14,12,43,13.00
2010,07,14,12,44,13.00
2010,07,14,12,45,13.10
2010,07,14,12,46,13.20
2010,07,14,12,47,13.40
2010,07,14,12,48,13.50
2010,07,14,12,49,13.70
2010,07,14,12,50,13.70
2010,07,14,12,51,13.70
2010,07,14,12,52,13.60
2010,07,14,12,53,13.70
2010,07,14,12,54,13.60
2010,07,14,12,55,13.60
2010,07,14,12,56,13.70
2010,07,14,12,57,13.70
2010,07,14,12,58,13.70
2010,07,14,12,59,13.70
2010,07,14,13,00,13.70
2010,07,14,13,01,13.80
2010,07,14,13,02,13.80
2010,07,14,13,03,13.90
2010,07,14,13,04,13.90
2010,07,14,13,05,13.80
2010,07,14,13,06,13.80
2010,07,14,13,07,13.70
2010,07,14,13,08,13.70
2010,07,14,13,09,13.70
2010,07,14,13,10,13.70
2010,07,14,13,11,13.60
2010,07,14,13,12,13.60
2010,07,14,13,13,13.50
2010,07,14,13,14,13.50
2010,07,14,13,15,13.50
2010,07,14,13,16,13.50
2010,07,14,13,17,13.40
2010,07,14,13,18,13.20
2010,07,14,13,19,13.10
2010,07,14,13,20,13.10
2010,07,14,13,21,13.00
2010,07,14,13,22,13.00
2010,07,14,13,23,13.10
2010,07,14,13,24,13.20
2010,07,14,13,25,13.20
2010,07,14,13,26,13.20
2010,07,14,13,27,13.20
2010,07,14,13,28,13.20
2010,07,14,13,29,13.20
2010,07,14,13,30,13.20
2010,07,14,13,31,13.20
2010,07,14,13,32,13.20
2010,07,14,13,33,13.20
2010,07,14,13,34,13.20
2010,07,14,13,35,13.30
2010,07,14,13,36,13.40
2010,07,14,13,37,13.50
2010,07,14,13,38,13.60
2010,07,14,13,39,13.80
2010,07,14,13,40,13.90
2010,07,14,13,41,14.00
2010,07,14,13,42,14.10
2010,07,14,13,43,14.10
2010,07,14,13,44,14.10
2010,07,14,13,45,14.10
2010,07,14,13,46,14.00
2010,07,14,13,47,14.00
2010,07,14,13,48,14.00
2010,07,14,13,49,14.00
2010,07,14,13,50,14.00
2010,07,14,13,51,14.00
2010,07,14,13,52,13.90
2010,07,14,13,53,13.90
2010,07,14,13,54,13.90
2010,07,14,13,55,14.00
2010,07,14,13,56,14.10
2010,07,14,13,57,14.10
2010,07,14,13,58,14.10
2010,07,14,13,59,14.10
2010,07,14,14,00,14.00
2010,07,14,14,01,14.00
2010,07,14,14,02,14.10
2010,07,14,14,03,14.10
2010,07,14,14,04,14.20
2010,07,14,14,05,14.30
2010,07,14,14,06,14.30
2010,07,14,14,07,14.40
2010,07,14,14,08,14.40
2010,07,14,14,09,14.40
2010,07,14,14,10,14.50
2010,07,14,14,11,14.70
2010,07,14,14,12,14.70
2010,07,14,14,13,14.80
2010,07,14,14,14,14.80
2010,07,14,14,15,14.90
2010,07,14,14,16,15.10
2010,07,14,14,17,15.20
2010,07,14,14,18,15.30
2010,07,14,14,19,15.30
2010,07,14,14,20,15.30
2010,07,14,14,21,15.20
2010,07,14,14,22,15.10
2010,07,14,14,23,15.00
2010,07,14,14,24,15.10
2010,07,14,14,25,15.20
2010,07,14,14,26,15.30
2010,07,14,14,27,15.30
2010,07,14,14,28,15.30
2010,07,14,14,29,15.40
2010,07,14,14,30,15.40
2010,07,14,14,31,15.50
2010,07,14,14,32,15.40
2010,07,14,14,33,15.40
2010,07,14,14,34,15.40
2010,07,14,14,35,15.40
2010,07,14,14,36,15.40
2010,07,14,14,37,15.40
2010,07,14,14,38,15.20
2010,07,14,14,39,15.20
2010,07,14,14,40,15.10
2010,07,14,14,41,15.00
2010,07,14,14,42,15.00
2010,07,14,14,43,15.00
2010,07,14,14,44,15.10
2010,07,14,14,45,15.20
2010,07,14,14,46,15.30
2010,07,14,14,47,15.30
2010,07,14,14,48,15.30
2010,07,14,14,49,15.30
2010,07,14,14,50,15.30
2010,07,14,14,51,15.30
2010,07,14,14,52,15.30
2010,07,14,14,53,15.20
2010,07,14,14,54,15.20
2010,07,14,14,55,15.20
2010,07,14,14,56,15.20
2010,07,14,14,57,15.30
2010,07,14,14,58,15.20
2010,07,14,14,59,15.20
2010,07,14,15,00,15.20
2010,07,14,15,01,15.20
2010,07,14,15,02,15.30
2010,07,14,15,03,15.40
2010,07,14,15,04,15.40
2010,07,14,15,05,15.50
2010,07,14,15,06,15.50
2010,07,14,15,07,15.60
2010,07,14,15,08,15.60
2010,07,14,15,09,15.50
2010,07,14,15,10,15.40
2010,07,14,15,11,15.30
2010,07,14,15,12,15.20
2010,07,14,15,13,15.20
2010,07,14,15,14,15.20
2010,07,14,15,15,15.30
2010,07,14,15,16,15.30
2010,07,14,15,17,15.40
2010,07,14,15,18,15.40
2010,07,14,15,19,15.40
2010,07,14,15,20,15.50
2010,07,14,15,21,15.50
2010,07,14,15,22,15.50
2010,07,14,15,23,15.40
2010,07,14,15,24,15.20
2010,07,14,15,25,15.10
2010,07,14,15,26,15.10
2010,07,14,15,27,15.00
2010,07,14,15,28,14.90
2010,07,14,15,29,14.80
2010,07,14,15,30,14.70
2010,07,14,15,31,14.70
2010,07,14,15,32,14.70
2010,07,14,15,33,14.70
2010,07,14,15,34,14.80
2010,07,14,15,35,14.80
2010,07,14,15,36,14.90
2010,07,14,15,37,15.00
2010,07,14,15,38,15.20
2010,07,14,15,39,15.30
2010,07,14,15,40,15.50
2010,07,14,15,41,15.60
2010,07,14,15,42,15.70
2010,07,14,15,43,15.80
2010,07,14,15,44,15.90
2010,07,14,15,45,15.90
2010,07,14,15,46,15.90
2010,07,14,15,47,15.80
2010,07,14,15,48,15.80
2010,07,14,15,49,15.80
2010,07,14,15,50,15.80
2010,07,14,15,51,15.80
2010,07,14,15,52,15.90
2010,07,14,15,53,16.00
2010,07,14,15,54,16.00
2010,07,14,15,55,16.00
2010,07,14,15,56,16.00
2010,07,14,15,57,16.00
2010,07,14,15,58,16.10
2010,07,14,15,59,16.10
2010,07,14,16,00,16.20
2010,07,14,16,01,16.20
2010,07,14,16,02,16.10
2010,07,14,16,03,16.20
2010,07,14,16,04,16.20
2010,07,14,16,05,16.30
2010,07,14,16,06,16.30
2010,07,14,16,07,16.40
2010,07,14,16,08,16.40
2010,07,14,16,09,16.30
2010,07,14,16,10,16.20
2010,07,14,16,11,16.20
2010,07,14,16,12,16.20
2010,07,14,16,13,16.20
2010,07,14,16,14,16.20
2010,07,14,16,15,16.20
2010,07,14,16,16,16.20
2010,07,14,16,17,16.20
2010,07,14,16,18,16.20
2010,07,14,16,19,16.10
2010,07,14,16,20,16.10
2010,07,14,16,21,16.10
2010,07,14,16,22,16.10
2010,07,14,16,23,16.20
2010,07,14,16,24,16.30
2010,07,14,16,25,16.30
2010,07,14,16,26,16.40
2010,07,14,16,27,16.50
2010,07,14,16,28,16.60
2010,07,14,16,29,16.60
2010,07,14,16,30,16.70
2010,07,14,16,31,16.60
2010,07,14,16,32,16.50
2010,07,14,16,33,16.40
2010,07,14,16,34,16.30
2010,07,14,16,35,16.30
2010,07,14,16,36,16.40
2010,07,14,16,37,16.40
2010,07,14,16,38,16.40
2010,07,14,16,39,16.40
2010,07,14,16,40,16.30
2010,07,14,16,41,16.30
2010,07,14,16,42,16.30
2010,07,14,16,43,16.40
2010,07,14,16,44,16.30
2010,07,14,16,45,16.30
2010,07,14,16,46,16.30
2010,07,14,16,47,16.30
2010,07,14,16,48,16.30
2010,07,14,16,49,16.30
2010,07,14,16,50,16.40
2010,07,14,16,51,16.40
2010,07,14,16,52,16.40
2010,07,14,16,53,16.30
2010,07,14,16,54,16.30
2010,07,14,16,55,16.40
2010,07,14,16,56,16.50
2010,07,14,16,57,16.60
2010,07,14,16,58,16.70
2010,07,14,16,59,16.80
2010,07,14,17,00,16.80
2010,07,14,17,01,16.80
2010,07,14,17,02,16.80
2010,07,14,17,03,16.80
2010,07,14,17,04,16.80
2010,07,14,17,05,16.80
2010,07,14,17,06,16.80
2010,07,14,17,07,16.80
2010,07,14,17,08,16.70
2010,07,14,17,09,16.70
2010,07,14,17,10,16.70
2010,07,14,17,11,16.70
2010,07,14,17,12,16.70
2010,07,14,17,13,16.70
2010,07,14,17,14,16.70
2010,07,14,17,15,16.70
2010,07,14,17,16,16.60
2010,07,14,17,17,16.60
2010,07,14,17,18,16.60
2010,07,14,17,19,16.60
2010,07,14,17,20,16.60
2010,07,14,17,21,16.60
2010,07,14,17,22,16.60
2010,07,14,17,23,16.60
2010,07,14,17,24,16.60
2010,07,14,17,25,16.60
2010,07,14,17,26,16.50
2010,07,14,17,27,16.50
2010,07,14,17,28,16.50
2010,07,14,17,29,16.50
2010,07,14,17,30,16.50
2010,07,14,17,31,16.50
2010,07,14,17,32,16.40
2010,07,14,17,33,16.50
2010,07,14,17,34,16.50
2010,07,14,17,35,16.50
2010,07,14,17,36,16.60
2010,07,14,17,37,16.70
2010,07,14,17,38,16.60
2010,07,14,17,39,16.50
2010,07,14,17,40,16.40
2010,07,14,17,41,16.40
2010,07,14,17,42,16.40
2010,07,14,17,43,16.30
2010,07,14,17,44,16.40
2010,07,14,17,45,16.30
2010,07,14,17,46,16.20
2010,07,14,17,47,16.10